Regional Weather Roundup
Issued by NWS Kansas City/Pleasant Hill, MO

Home | Current Version | Previous Version | Text Only | Print | Product List | Glossary On
Versions: 1 2 3 4 5 6 7 8 9 10 11 12 13 14 15 16 17 18 19 20 21 22 23 24 25 26 27 28 29 30 31 32 33 34 35 36 37 38 39 40 41 42 43 44 45 46 47 48 49 50
000
ASUS43 KEAX 210510
RWREAX

WEATHER ROUNDUP FOR EASTERN KANSAS AND NORTHWEST MISSOURI
NATIONAL WEATHER SERVICE KANSAS CITY/PLEASANT HILL MO
1200 AM CDT MON AUG 21 2017

KSZ040-057-103>105-MOZ028-029-037-043-210600-
...KANSAS CITY METROPOLITAN AREA...

CITY           SKY/WX    TMP DP  RH WIND       PRES   REMARKS
K.C. INTL      MOCLDY    78  68  71 S10       30.03R
K.C. DOWNTOWN  MOCLDY    80  66  62 SW8       30.02S
LEES SUMMIT    MOCLDY    77  65  66 S12       30.04F
OLATHE - IXD   PTCLDY    75  64  68 S9        30.05S
OLATHE - OJC   PTCLDY    74  65  73 S7        30.05R
LAWRENCE       CLOUDY    78  68  71 SE9       30.03R

$$

MOZ001>008-011>017-020>025-030>033-038>040-044>046-053-054-210600-
...NORTHERN AND CENTRAL MISSOURI...

CITY           SKY/WX    TMP DP  RH WIND       PRES   REMARKS
ST. JOSEPH     PTCLDY    79  75  87 S8        30.01R
MOSBY          CLOUDY    77  66  69 S3        30.03S
WARRENSBURG    MOCLDY    73  63  68 S6        30.02F
WHITEMAN AFB   MOCLDY    73  69  87 S8        30.02S
CLINTON        CLOUDY    72  66  83 S5        30.04S
SEDALIA        PTCLDY    73  68  84 S7        30.05R
WARSAW         NOT AVBL
CHILLICOTHE      N/A     74  71  91 S3        30.04S
KIRKSVILLE     MOCLDY    70  66  87 S3        30.05S

$$

MOZ041-047>049-056>058-063>065-088>090-097-210600-
...EASTERN AND SOUTHERN MISSOURI...

CITY           SKY/WX    TMP DP  RH WIND       PRES   REMARKS
ST. LOUIS INTL CLOUDY    81  71  71 CALM      30.07R
SPIRIT OF STL  MOCLDY    73  72  96 S3        30.06R
COLUMBIA       CLOUDY    75  72  90 CALM      30.06R
JEFFERSON CITY PTCLDY    79  76  90 SE3       30.04R
ROLLA          CLOUDY    75  72  90 S9        30.09R
OSAGE BEACH    CLOUDY    73  68  84 SE5       30.07R
SPRINGFIELD    CLEAR     71  70  96 S6        30.09F
BRANSON        CLEAR     73  72  94 E3        30.13S
JOPLIN         CLEAR     76  68  76 E5        30.08S
WEST PLAINS    CLOUDY    75  70  84 W5        30.13R

$$

IAZ060-094-KSZ022-034>040-054-083-096-NEZ052-066-093-210600-
...KANSAS...SOUTHEAST NEBRASKA AND IOWA...

CITY           SKY/WX    TMP DP  RH WIND       PRES   REMARKS
TOPEKA         CLOUDY    81  78  91 SE12      30.02R
MANHATTAN      CLOUDY    84  73  69 S13       29.99R HX  90
EMPORIA        PTCLDY    78  72  81 S12       30.03R
CHANUTE        PTCLDY    79  75  87 SE8       30.06R
WICHITA        CLOUDY    82  72  71 S12       30.02R
OMAHA          PTCLDY    75  65  70 S14       29.94F
LINCOLN        PTCLDY    78  72  81 SE7       29.96R
FALLS CITY     PTCLDY    78  74  87 SE12      29.98S
LAMONI         MOCLDY    70  65  84 E3        30.03F
DES MOINES     CLOUDY    72  66  81 SE7       30.01F

$$




USA.gov is the U.S. government's official web portal to all federal, state and local government web resources and services.